Location: A�t Lahcen
(32.8243°N, 5.4246°W)
Time: 02:03:08
(UTC+00:00)

Daily predictions for brighter satellites

Satellite Brightness Start Highest point End
(mag) Time Altitude Azimuth Time Altitude Azimuth Time Altitude Azimuth
FALCON 9 R/B 3.4 04:24:54 34° SE 04:24:54 34° SE 04:26:56 10° ESE
Atlas Centaur 2 3.2 04:26:51 57° ESE 04:26:51 57° ESE 04:33:14 10° E
ATLAS 2A CENTAUR R/B 4.4 04:30:50 24° SE 04:30:50 24° SE 04:35:42 10° ESE
Lacrosse 5 rocket 4.2 04:40:11 13° E 04:40:11 13° E 04:40:53 10° E
Haruka 3.7 04:45:09 63° ESE 04:45:09 63° ESE 04:54:16 10° E
ADEOS 4.2 04:43:08 10° NNE 04:53:49 - S 04:47:40 51° ENE
Cosmos 2034 Rocket 4.4 04:46:13 10° S 04:52:27 61° E 04:58:42 10° NNE
CZ-4B R/B 4.1 04:55:16 10° ESE 04:57:26 19° E 04:57:26 19° E
Cosmos 44 Rocket 3.9 04:59:26 57° SE 04:59:26 57° SE 05:03:34 10° SSE
Cosmos 1937 Rocket 3.9 05:00:59 58° SE 05:00:59 58° SE 05:05:09 10° SSE
NOSS 3-2 (A) 3.2 05:00:27 78° ENE 05:00:27 78° ENE 05:06:11 10° NNE
COSMO-SKYMED 1 4.3 05:04:45 10° SE 05:08:32 30° ENE 05:12:19 10° N
SL-16 R/B 2.4 05:07:46 10° S 05:13:21 70° ESE 05:18:59 10° NNE
NOSS 3-2 (C) 3.7 05:09:54 18° S 05:13:49 58° ESE 05:19:41 10° NE
USA 267 3.1 05:08:10 10° SE 05:14:41 78° SW 05:16:23 53° WNW
CZ-4B R/B 4.2 05:11:50 10° NNE 05:15:18 36° E 05:18:54 10° SSE
ERBS 4.2 05:18:11 29° E 05:18:11 29° E 05:20:14 10° NE
CZ-2C R/B 1.8 05:19:17 56° NE 05:19:17 56° NE 05:22:50 10° E
Cosmos 2278 Rocket 2.0 05:18:36 68° WNW 05:19:09 74° WSW 05:24:47 10° SSE
CENTAUR R/B 2.4 05:17:07 21° SSW 05:20:56 73° ESE 05:27:22 10° NNE
ERS-2 4.5 05:18:31 10° ESE 05:21:23 22° ENE 05:24:15 10° NNE
Cosmos 2237 Rocket 4.0 05:24:59 17° N 05:24:59 17° N 05:26:32 10° N
ATLAS 5 CENTAUR R/B 2.8 05:25:47 34° NNE 05:26:36 41° ENE 05:33:01 10° SE
OAO 3 Copernicus 4.2 05:27:15 63° NW 05:27:42 68° N 05:32:44 10° E
H-2A R/B 3.9 05:23:56 10° S 05:25:22 20° SSW 05:25:22 20° SSW
SL-24 R/B 3.9 05:26:04 10° SSE 05:30:04 87° W 05:31:05 52° NNW
H-2A R/B 3.8 05:28:42 10° NNE 05:32:17 44° E 05:35:54 10° S
Meteor PRIRODA 3.9 05:33:21 10° NNE 05:36:57 67° E 05:40:33 10° S
OAO 2 Rocket 3.3 05:36:18 54° WSW 05:37:12 67° SSW 05:42:03 10° ESE
Lacrosse 4 Rocket 3.6 05:40:48 14° N 05:40:48 14° N 05:41:30 10° N
Cosmos 1241 Rocket 4.5 05:35:01 32° NW 05:38:07 66° WSW 05:44:30 10° SSE
SEDSat Delta rocket 4.0 05:36:24 37° WSW 05:39:14 78° S 05:46:01 10° E
Cosmos 1626 Rocket 3.4 05:37:41 19° N 05:40:55 85° W 05:45:21 10° S
Cosmos 1703 3.2 05:39:02 25° N 05:41:13 82° E 05:45:08 10° S
Cosmos 1300 3.8 05:38:07 10° SSE 05:41:44 44° E 05:45:22 10° NNE
Cosmos 1315 Rocket 3.8 05:42:30 10° SSE 05:46:14 46° E 05:49:58 10° NNE
[s.n.47389] 4.1 05:48:24 27° NE 05:48:24 27° NE 05:49:45 10° NE
[s.n.47399] 4.1 05:48:25 27° NE 05:48:25 27° NE 05:49:47 10° NE
[s.n.47393] 4.1 05:48:28 27° NE 05:48:28 27° NE 05:49:49 10° NE
[s.n.47353] 4.1 05:48:32 27° NE 05:48:32 27° NE 05:49:54 10° NE
[s.n.47355] 4.1 05:48:34 28° NE 05:48:34 28° NE 05:49:57 10° NE
[s.n.47365] 4.1 05:48:37 28° NE 05:48:37 28° NE 05:50:00 10° NE
[s.n.47383] 4.1 05:48:42 28° NE 05:48:42 28° NE 05:50:05 10° NE
[s.n.47400] 4.0 05:48:40 29° NE 05:48:40 29° NE 05:50:09 10° NE
[s.n.47378] 4.1 05:48:48 28° NE 05:48:48 28° NE 05:50:12 10° NE
[s.n.47395] 4.1 05:48:51 28° NE 05:48:51 28° NE 05:50:14 10° NE
[s.n.47379] 4.1 05:48:57 28° NE 05:48:57 28° NE 05:50:20 10° NE
[s.n.47370] 4.1 05:48:57 28° NE 05:48:57 28° NE 05:50:20 10° NE
[s.n.47351] 4.0 05:48:56 30° NE 05:48:56 30° NE 05:50:26 10° NE
[s.n.47394] 4.0 05:49:03 28° NE 05:49:03 28° NE 05:50:27 10° NE
[s.n.47354] 4.0 05:49:07 28° NE 05:49:07 28° NE 05:50:31 10° NE
[s.n.47360] 4.0 05:49:09 28° NE 05:49:09 28° NE 05:50:33 10° NE
[s.n.47369] 4.0 05:49:13 28° NE 05:49:13 28° NE 05:50:38 10° NE
[s.n.47406] 4.0 05:49:15 28° NE 05:49:15 28° NE 05:50:40 10° NE
[s.n.47384] 4.0 05:49:18 28° NE 05:49:18 28° NE 05:50:43 10° NE
[s.n.47356] 4.0 05:49:21 28° NE 05:49:21 28° NE 05:50:46 10° NE
[s.n.47407] 4.0 05:49:25 28° NE 05:49:25 28° NE 05:50:50 10° NE
[s.n.47385] 3.9 05:49:23 30° NE 05:49:23 30° NE 05:50:54 10° NE
[s.n.47358] 4.0 05:49:32 28° NE 05:49:32 28° NE 05:50:57 10° NE
[s.n.47398] 4.0 05:49:34 28° NE 05:49:34 28° NE 05:50:59 10° NE
[s.n.47361] 4.0 05:49:38 28° NE 05:49:38 28° NE 05:51:03 10° NE
[s.n.47392] 4.0 05:49:39 28° NE 05:49:39 28° NE 05:51:05 10° NE
[s.n.47382] 4.0 05:49:43 28° NE 05:49:43 28° NE 05:51:08 10° NE
[s.n.47359] 3.9 05:49:43 30° NE 05:49:43 30° NE 05:51:12 10° NE
[s.n.47401] 4.0 05:49:50 28° NE 05:49:50 28° NE 05:51:16 10° NE
[s.n.47380] 3.9 05:49:47 30° NE 05:49:47 30° NE 05:51:19 10° NE
[s.n.47386] 4.0 05:49:56 29° NE 05:49:56 29° NE 05:51:23 10° NE
[s.n.47408] 3.9 05:49:54 31° NNE 05:49:54 31° NNE 05:51:27 10° NE
[s.n.47396] 4.0 05:50:02 29° NE 05:50:02 29° NE 05:51:28 10° NE
[s.n.47391] 4.0 05:50:03 29° NE 05:50:03 29° NE 05:51:31 10° NE
[s.n.47402] 4.0 05:50:07 29° NE 05:50:07 29° NE 05:51:34 10° NE
[s.n.47404] 4.0 05:50:11 29° NE 05:50:11 29° NE 05:51:38 10° NE
[s.n.47403] 3.9 05:50:14 29° NNE 05:50:14 29° NNE 05:51:41 10° NE
[s.n.47381] 4.0 05:50:17 29° NNE 05:50:17 29° NNE 05:51:44 10° NE
[s.n.47372] 4.0 05:50:21 29° NNE 05:50:21 29° NNE 05:51:48 10° NE
[s.n.47405] 3.9 05:50:23 29° NNE 05:50:23 29° NNE 05:51:51 10° NE
[s.n.47368] 4.0 05:50:29 29° NNE 05:50:29 29° NNE 05:51:56 10° NE
[s.n.47350] 3.9 05:50:31 29° NNE 05:50:31 29° NNE 05:51:58 10° NE
[s.n.47349] 3.8 05:50:28 31° NNE 05:50:28 31° NNE 05:52:02 10° NE
[s.n.47367] 3.9 05:50:34 30° NNE 05:50:34 30° NNE 05:52:04 10° NE
[s.n.47373] 3.9 05:50:35 31° NNE 05:50:35 31° NNE 05:52:08 10° NE
[s.n.47377] 3.8 05:50:38 31° NNE 05:50:38 31° NNE 05:52:12 10° NE
[s.n.47371] 3.8 05:50:40 31° NNE 05:50:40 31° NNE 05:52:14 10° NE
[s.n.47362] 3.8 05:50:43 31° NNE 05:50:43 31° NNE 05:52:17 10° NE
[s.n.47363] 3.8 05:50:47 31° NNE 05:50:47 31° NNE 05:52:21 10° NE
[s.n.47374] 3.9 05:50:53 30° NNE 05:50:53 30° NNE 05:52:24 10° NE
[s.n.47357] 3.9 05:50:57 30° NNE 05:50:57 30° NNE 05:52:27 10° NE
[s.n.47390] 3.9 05:51:01 29° NNE 05:51:01 29° NNE 05:52:30 10° NE
[s.n.47387] 3.9 05:51:03 30° NNE 05:51:03 30° NNE 05:52:33 10° NE
[s.n.47375] 3.9 05:51:04 30° NNE 05:51:04 30° NNE 05:52:33 10° NE
[s.n.47376] 3.8 05:51:02 32° NNE 05:51:02 32° NNE 05:52:38 10° NE
[s.n.47366] 3.9 05:51:13 30° NNE 05:51:13 30° NNE 05:52:43 10° NE
[s.n.47352] 3.8 05:51:15 31° NNE 05:51:15 31° NNE 05:52:47 10° NE
[s.n.47364] 3.8 05:51:18 31° NNE 05:51:18 31° NNE 05:52:51 10° NE
[s.n.47388] 3.8 05:51:21 31° NNE 05:51:21 31° NNE 05:52:54 10° NE
[s.n.47397] 3.9 05:51:28 30° NNE 05:51:28 30° NNE 05:52:58 10° NE
MOS 1 Rocket 3.4 05:48:58 10° SSE 05:53:56 79° ENE 05:58:37 10° N
deb Chang Zheng 4 3.5 05:50:40 10° N 05:54:48 53° WNW 05:58:54 10° SSW
USA 238 DEB 3.8 05:51:23 20° WSW 05:55:45 47° NW 06:02:15 10° NNE
USA 238 3.8 05:51:23 19° WSW 05:55:51 48° NW 06:02:21 10° NNE
Cosmos 836 Rocket 4.4 05:50:50 10° SSW 05:56:06 87° WNW 06:01:22 10° NNE
SKYMED 2 3.4 05:52:09 10° S 05:56:27 69° W 06:00:46 10° NNW
SL-8 R/B 4.2 05:55:18 34° W 05:56:41 42° SW 06:01:14 10° SSE
Cosmos 2297 4.4 05:52:17 10° N 05:57:55 55° ENE 06:03:31 10° SE
Cosmos 1346 Rocket 3.7 05:57:48 10° N 06:01:41 50° E 06:05:34 10° SSE
Cosmos 1689 Rocket 2.9 06:00:46 10° SSE 06:03:34 48° ENE 06:06:22 10° N
Cosmos 1758 Rocket 3.9 06:02:16 10° N 06:06:44 70° E 06:11:07 10° SSE
BREEZE M DEB (TANK) 3.4 06:11:50 16° NNW 06:11:50 16° NNW 06:13:17 10° NNE
Cosmos 1726 Rocket 3.9 06:09:41 10° S 06:13:57 68° E 06:18:14 10° NNE
Atlas Centaur 2 3.2 06:09:26 19° W 06:14:53 61° SSW 06:23:10 10° ESE
Cosmos 1603 4.4 06:11:07 10° S 06:16:35 57° ESE 06:22:05 10° NNE
Lacrosse 5 rocket 2.1 06:15:51 23° W 06:17:05 29° WSW 06:20:16 10° S
Cosmos 2084 Rocket 3.7 06:13:52 10° NNW 06:18:16 78° ENE 06:22:49 10° SE
Cosmos 1340 3.5 06:16:49 20° NW 06:18:29 28° W 06:21:43 10° SSW
SJ-7 4.4 06:17:51 10° N 06:21:52 57° WNW 06:25:49 10° SSW
Cosmos 2150 Rocket 4.0 06:16:43 10° NNW 06:22:06 72° WSW 06:27:30 10° S
YAOGAN 6 2.6 06:18:56 10° N 06:22:33 55° WNW 06:26:09 10° SSW
Spot 2 4.3 06:19:20 10° NNE 06:23:23 71° ESE 06:27:35 10° S
Cosmos 1602 Rocket 4.2 06:19:36 10° NNW 06:23:42 35° W 06:27:46 10° SSW
Cosmos 2279 Rocket 4.0 06:19:26 10° S 06:25:40 86° W 06:31:58 10° N
Cosmos 1092 Rocket 4.1 06:21:16 10° NNW 06:27:12 51° W 06:33:10 10° SSW
Cosmos 1328 4.4 06:23:42 10° NNW 06:27:14 33° W 06:30:45 10° SSW
Aurora 2 Rocket 4.3 06:25:35 10° WSW 06:29:15 27° S 06:34:02 10° SE
CZ-4B R/B 3.0 06:27:35 10° SW 06:29:49 16° W 06:30:32 16° W
CZ-4B DEB 4.2 06:27:28 10° N 06:33:02 80° WNW 06:38:34 10° SSW
PSLV R/B 4.0 06:29:31 10° N 06:33:27 53° WNW 06:37:25 10° SSW
Cosmos 2292 Rocket 4.4 06:31:06 10° N 06:34:13 43° E 06:38:01 10° SSE
Meteor 2-19 Rocket 4.4 06:28:43 10° N 06:34:49 77° W 06:40:51 10° S
CZ-2C R/B 3.3 06:33:26 10° SSE 06:38:33 59° ENE 06:43:47 10° N
Cosmos 2098 Rocket 3.2 06:33:36 10° NNW 06:38:37 60° W 06:42:32 10° S
ASTRO F (AKARI) 4.5 06:35:02 10° N 06:38:40 67° WNW 06:42:07 10° SSW
Okean O Rocket 2.4 06:34:31 10° NNE 06:38:48 56° E 06:43:03 10° S
Chandra Rocket (1) 2.6 06:35:17 10° W 06:39:05 31° SSW 06:41:25 10° SE
Cosmos 1825 Rocket 3.6 06:34:52 10° NNW 06:39:18 67° W 06:43:42 10° S
SMAP 3.1 06:36:17 10° NNE 06:40:57 88° E 06:45:35 10° SSW
Cosmos 1943 Rocket 2.3 06:36:42 10° NNW 06:42:24 84° ENE 06:48:04 10° SSE
Cosmos 773 Rocket 4.1 06:39:25 10° SSW 06:44:40 83° ESE 06:49:54 10° NNE
COSMO-SKYMED 1 4.0 06:41:44 10° SW 06:44:41 18° W 06:47:38 10° NW
H-2A R/B 2.6 06:40:37 10° N 06:45:08 80° WNW 06:49:35 10° SSW
Cosmos 1939 Rocket 4.3 06:43:59 10° NNE 06:47:40 41° E 06:51:18 10° S
Envisat 3.6 06:45:01 10° N 06:49:34 35° WNW 06:54:08 10° SW
Meteor 2-10 Rocket 3.9 06:44:09 10° S 06:49:58 89° E 06:55:47 10° N
Cosmos 2228 3.9 06:47:13 10° SW 06:50:47 26° WNW 06:54:22 10° NNW
Cosmos 1125 Rocket 3.8 06:46:11 10° NNW 06:51:18 51° WSW 06:56:25 10° S
Cosmos 2369 Rocket 2.9 06:47:35 10° NNW 06:53:05 57° ENE 06:58:33 10° SE
ERBS 4.2 06:51:44 10° WNW 06:53:28 14° NW 06:55:13 10° N
ERS-2 3.7 06:52:27 10° SW 06:54:48 16° W 06:57:11 10° NW
